Simultaneous Nadir Overpasses (SNOs) Predictions

Prediction of SNOs between LANDSAT-8 and METOP-B Satellite Orbit:

Table of predicted SNOs for the next 14.0 days since TLE Epoch: 2/26/2022
Index Date (LANDSAT-8) Time (LANDSAT-8) Lat,Lon (LANDSAT-8) SZA (LANDSAT-8 ) Date (METOP-B) Time (METOP-B) Lat,Lon (METOP-B) SZA (METOP-B ) Distance(km) Time Diff (sec)
1 02/28/2022 13:36:05 -81.14,-164.19 89.34 02/28/2022 13:35:00 -81.14,-164.09 89.34 1.94 65
2 02/28/2022 14:25:29 81.17, 3.91 90.72 02/28/2022 14:25:38 81.16, 3.72 90.70 3.29 9
3 03/03/2022 09:10:19 -81.13, -97.81 90.40 03/03/2022 09:09:21 -81.14, -97.89 90.43 1.29 58
4 03/03/2022 09:59:44 81.16, 70.25 89.65 03/03/2022 09:59:59 81.17, 70.28 89.67 0.52 15
5 03/06/2022 04:44:33 -81.15, -31.13 91.43 03/06/2022 04:43:41 -81.15, -30.97 91.43 2.87 52
6 03/06/2022 05:33:58 81.18, 136.91 88.62 03/06/2022 05:34:20 81.17, 136.81 88.61 1.90 22
7 03/09/2022 00:18:48 -81.14, 35.13 92.53 03/09/2022 00:18:03 -81.15, 35.17 92.54 1.10 45
8 03/09/2022 01:08:13 81.16,-156.86 87.51 03/09/2022 01:08:41 81.17,-156.69 87.55 3.16 28
9 03/11/2022 19:53:01 -81.15, 101.69 93.60 03/11/2022 19:52:23 -81.15, 101.66 93.61 0.47 38



Historial Predications of SNOs between LANDSAT-8 and METOP-B
